Погода в Хуигальпе

Никарагуа     12°06′07″N   85°22′12″W
темп.,
°C
ветер,
м/с
пор.,
м/с
влажн.,
%
обл.,
%
осадки,
мм/ч
давл.,
гПа
погр.,
м
12 мая, ср
ср1200:00+25св4108198 0.2 1012718
03:00+25св5118381 0.2 1010686
06:00+25св4118257 0.2 1012753
09:00+29всв710658 0.0 10131075
12:00+33всв810445 0.0 10111885
15:00+32в894587 0.0 10092033
18:00+28всв696299 0.0 10111032
21:00+26всв51074100 0.0 1012745
13 мая, чт
чт1300:00+25св4118233 0.0 1012728
03:00+25св6128136 0.0 1010677
06:00+25св5128061 0.0 1011850
09:00+30св8116085 0.0 10131335
12:00+33всв8104640 0.1 10111992
15:00+31св81054100 0.0 10101629
18:00+27св61172100 0.0 1011892
21:00+26всв6127890 0.0 1012858
14 мая, пт
пт1400:00+25св5128126 0.0 1012856
03:00+25св6148198 0.0 1011822
06:00+25св6138070 0.0 1012949
09:00+28св9136662 0.0 10131184
12:00+33всв10123974 0.0 10112071
15:00+32св9114336 0.0 10102148
18:00+29всв71154100 0.0 10111191
21:00+26всв61273100 0.0 1014866
15 мая, сб
сб1500:00+25св6138018 0.0 1013852
03:00+25св51282100 0.0 1012806
06:00+25св6138060 0.0 1012844
09:00+29св81259100 0.0 10141298
12:00+34всв9104072 0.0 10122236
15:00+29всв7115377 0.0 10111227
18:00+28в695892 0.0 10121042
21:00+25в4117691 0.0 1013623
16 мая, вс
вс1600:00+24св3108558 0.0 1013529
03:00+24св51080100 0.0 1012634
06:00+24св4118296 0.0 1013741
09:00+26св61074100 0.0 1014884
12:00+34всв7940100 0.0 10122288
15:00+33св894033 0.0 10101878
18:00+29в795927 0.0 1012698
21:00+26всв497522 0.0 1014587